Wind_Speed
65 65 65 65 66 66 66 67 67 68 69 70 71 72 73 74 75 76 77 79 80 82 83 85 87 89 91 93 95 97 99 101 102 103 104 105 105 104 103 102 100 98 96 93 90 87 84 82 79 77 75 73 71 69 67 65 63 61 58 56 54 52 50 49 47 46 44 43 42 42 41 40 40 40 39 39 39 38 38 38 38 38 38 38 38 38
66 66 66 66 66 67 68 68 69 70 71 72 73 73 74 75 77 78 79 81 83 85 86 88 90 92 94 97 99 101 102 104 104 105 105 104 103 102 100 97 94 91 88 85 82 79 77 74 72 70 68 66 64 62 59 57 55 53 50 48 47 45 44 42 41 40 39 38 38 37 37 37 36 36 35 35 35 34 34 34 34 34 34 34 34 34
66 66 67 67 68 68 69 70 71 72 73 74 74 75 76 77 79 80 82 84 85 87 89 91 94 96 98 100 102 103 104 105 104 104 103 101 99 97 94 90 87 83 80 77 74 71 69 67 65 63 61 59 57 54 52 50 48 46 44 43 42 40 39 38 37 37 36 35 35 35 34 34 34 33 33 33 32 32 32 32 32 32 32 32 33 33
67 67 68 69 69 70 71 72 73 74 75 75 76 77 78 80 81 83 84 86 88 91 93 95 97 99 101 103 104 104 104 103 102 100 98 96 93 90 86 82 79 75 72 69 66 64 62 60 58 56 54 52 50 48 46 45 43 42 41 39 39 38 37 36 35 34 34 33 32 32 32 32 31 31 31 31 31 31 31 31 31 32 32 32 33 33
68 69 69 70 71 72 73 74 74 76 77 77 78 80 81 82 84 86 88 90 92 94 96 98 101 102 104 104 104 103 101 100 97 95 92 89 85 82 78 74 70 67 64 62 60 58 56 55 53 51 49 47 45 44 42 41 40 39 39 38 37 36 35 34 33 32 31 31 30 30 30 30 30 30 30 30 30 30 31 31 32 32 32 33 34 34
69 70 71 72 73 74 74 75 76 78 79 80 81 82 84 85 87 89 91 93 95 97 100 102 103 104 104 103 101 99 97 94 92 88 85 81 77 73 69 66 62 60 58 56 55 53 52 50 48 46 45 43 42 41 40 40 39 38 38 37 36 35 33 32 30 29 29 29 29 29 29 29 29 30 30 30 30 31 31 32 32 33 33 34 34 35
71 72 73 74 75 76 76 77 79 80 81 82 84 85 86 88 90 92 94 96 98 101 102 104 104 103 101 99 97 94 91 88 84 81 77 73 69 65 61 58 56 54 53 52 51 49 48 46 45 44 43 42 41 40 40 39 38 37 36 35 34 32 31 29 28 27 27 27 28 28 29 29 29 30 30 30 31 31 31 32 32 33 33 34 35 35
73 74 75 75 76 77 78 79 81 82 84 85 86 88 89 91 93 95 97 99 101 103 103 103 102 100 97 93 90 87 84 81 77 73 69 65 61 58 55 52 51 50 49 49 48 47 45 44 43 42 42 41 40 40 39 38 37 36 35 34 32 30 28 27 26 26 27 27 28 29 29 30 30 30 30 30 31 31 31 32 32 33 34 34 35 36
74 75 76 77 78 79 80 81 83 84 86 88 89 91 93 94 96 98 100 102 103 103 102 100 97 94 91 87 83 80 77 73 69 65 61 57 54 52 50 48 48 48 47 47 46 45 44 43 42 42 41 41 40 39 39 38 37 35 34 32 30 28 27 26 26 26 27 28 28 29 30 30 30 30 30 30 30 31 31 31 32 33 34 35 36 36
76 77 78 78 79 80 81 83 85 87 88 90 92 94 96 97 99 101 102 102 102 101 99 95 91 87 83 80 76 72 68 65 62 58 54 50 48 47 47 46 46 46 46 46 45 44 43 43 42 42 41 41 40 39 38 37 36 34 33 31 29 27 26 25 26 26 27 28 29 29 30 30 30 30 30 30 30 30 31 31 32 33 34 35 35 36
77 78 79 80 81 82 84 85 87 89 91 93 95 97 99 100 101 102 101 101 99 97 93 89 84 78 74 72 69 66 61 57 54 51 48 46 45 45 45 45 45 45 45 45 44 44 43 43 42 42 41 40 40 39 38 37 35 34 32 30 28 27 26 26 26 27 28 29 29 30 30 30 29 29 29 30 30 30 31 31 32 33 33 34 35 35
78 79 80 82 83 85 86 88 90 92 93 95 98 100 101 102 102 101 99 97 94 90 85 81 76 71 66 63 61 59 55 51 48 46 44 44 44 45 45 45 45 45 45 44 44 44 43 43 42 42 41 40 40 39 38 36 35 33 32 30 28 27 26 26 27 27 28 29 30 30 30 29 29 29 29 29 30 30 30 31 32 32 33 33 33 34
80 81 82 84 85 87 89 91 93 95 97 99 100 101 102 102 101 99 95 92 87 82 77 72 68 65 60 57 54 52 49 47 44 43 42 43 44 45 45 45 45 45 44 44 44 44 43 43 42 42 41 40 40 39 38 36 35 33 32 30 29 28 27 27 27 28 29 30 30 30 30 29 29 29 29 29 30 30 30 31 31 32 32 32 33 33
82 83 84 86 88 90 92 94 96 98 100 101 101 101 101 99 97 93 89 85 80 75 69 64 60 57 54 52 50 48 46 44 42 41 41 43 44 45 45 45 45 45 44 44 44 44 43 43 43 42 42 41 40 39 38 37 35 34 32 31 30 29 28 28 28 29 30 30 30 30 30 29 29 29 29 29 30 30 30 31 31 31 31 32 32 32
84 85 87 89 91 93 95 97 99 100 101 102 101 100 98 95 91 86 81 76 72 68 63 58 54 51 49 48 47 46 45 44 42 41 41 43 45 46 45 45 45 44 43 43 43 43 43 43 43 42 42 42 41 40 39 37 36 35 34 32 31 30 29 29 29 30 30 31 31 31 30 30 30 30 30 30 30 30 30 30 31 31 31 32 32 33
86 88 89 92 94 96 97 99 100 101 101 100 98 95 91 87 83 79 73 68 64 60 56 52 49 47 47 47 47 46 45 44 43 42 42 44 45 46 46 45 44 44 43 43 43 43 43 43 43 43 42 42 42 41 40 38 37 36 35 34 33 32 31 30 30 31 31 32 32 31 31 30 30 30 30 30 30 30 30 31 31 31 31 32 32 33
88 90 92 94 96 98 99 100 100 99 98 96 93 89 84 79 75 70 66 62 58 54 51 48 46 44 45 46 48 48 46 45 45 44 44 44 45 46 46 45 44 43 42 42 42 43 43 43 43 43 43 43 42 41 40 39 38 37 36 36 35 33 32 32 31 32 32 33 32 32 31 31 31 31 31 31 30 30 31 31 31 31 32 32 32 33
91 93 95 97 99 99 100 99 98 96 93 90 85 81 77 72 67 63 59 56 53 51 49 48 47 45 45 46 48 49 48 47 46 46 45 45 45 46 45 44 43 42 42 42 42 42 42 42 43 43 43 43 43 42 41 40 39 38 38 37 36 35 34 33 33 33 33 33 33 33 32 32 32 31 31 31 31 31 31 31 31 32 32 32 32 33
94 96 97 99 99 99 98 96 93 90 86 82 78 73 68 65 61 57 54 52 51 50 49 48 48 48 47 48 49 50 50 48 47 46 45 44 44 45 44 44 43 42 41 41 42 42 42 42 43 43 44 44 43 42 42 41 40 40 39 39 38 37 35 34 34 34 34 34 34 34 33 33 32 32 32 31 31 31 31 32 32 32 32 32 32 32
96 97 98 98 97 96 94 91 87 82 78 74 70 65 61 58 55 53 52 51 50 50 49 49 49 49 49 49 49 50 50 49 48 47 45 44 43 43 43 42 42 41 41 41 41 41 42 42 43 43 44 44 44 43 42 42 41 40 40 39 39 38 37 36 35 35 35 35 35 34 34 33 33 33 32 32 32 32 32 32 32 32 32 32 32 32
97 98 98 96 93 90 87 84 80 75 70 66 63 59 56 54 52 51 51 50 50 50 50 49 49 49 49 49 49 49 50 49 48 46 45 43 42 42 42 41 41 40 40 40 40 41 41 42 42 43 44 44 44 43 43 42 41 41 41 40 40 39 38 37 36 36 36 36 36 35 35 34 34 33 33 33 33 32 32 32 32 32 32 32 32 32
97 96 95 92 88 83 79 75 71 67 63 59 56 54 53 52 51 51 51 50 50 49 49 49 48 48 48 48 48 49 49 48 47 46 44 42 41 40 40 40 40 39 39 39 39 40 40 41 42 43 44 44 44 43 43 42 42 42 41 41 40 40 39 38 38 37 37 37 36 36 35 35 35 34 34 33 33 33 33 33 33 32 32 32 32 31
94 92 89 86 81 76 71 67 63 60 57 54 53 52 51 51 50 50 50 50 49 49 48 48 47 47 47 47 47 47 47 47 46 45 43 41 39 39 39 39 39 38 38 38 38 39 39 40 41 42 43 44 44 44 43 43 42 42 42 41 41 40 39 39 38 38 38 38 37 37 36 36 36 35 35 34 34 34 33 33 33 33 32 32 32 31
90 86 82 77 72 68 63 59 56 54 52 52 51 51 51 50 50 50 50 49 49 48 47 47 46 46 46 46 46 46 46 46 45 44 42 40 38 38 38 38 37 37 37 37 37 38 38 39 40 41 43 43 43 43 43 43 43 42 42 42 41 40 40 39 39 39 39 38 38 38 37 37 37 36 36 35 35 34 34 34 33 33 33 32 32 31
83 78 73 69 64 59 56 53 52 51 50 50 50 50 50 50 49 49 49 48 48 47 46 46 45 45 44 44 44 44 45 45 44 43 41 40 38 37 37 37 37 36 36 36 36 36 36 37 38 40 41 42 43 43 43 43 43 42 42 42 41 41 40 40 39 39 39 39 39 38 38 38 37 37 37 36 36 35 35 34 34 34 33 33 32 31
75 70 65 60 56 53 51 50 50 50 50 50 50 49 49 48 48 48 48 47 47 46 45 45 44 43 42 42 41 41 42 43 43 42 41 39 37 36 36 36 36 35 35 35 35 35 35 35 36 38 39 41 42 42 42 42 42 42 42 41 41 41 40 40 39 39 39 39 39 39 38 38 38 38 37 37 36 36 35 35 34 34 34 33 32 31
66 61 57 53 51 50 49 49 50 50 50 50 49 49 48 47 47 46 46 46 45 44 44 43 42 41 40 39 38 39 40 41 41 41 40 38 36 35 34 34 34 34 34 33 33 33 33 34 34 36 37 39 40 41 41 42 42 41 41 41 41 40 40 40 39 39 39 39 39 39 38 38 38 38 37 37 37 36 36 35 35 34 34 33 32 31
57 53 51 49 48 49 49 49 49 49 49 49 48 48 47 46 46 45 45 44 43 43 42 41 40 39 38 37 36 36 38 39 40 40 38 37 35 34 33 33 33 33 33 32 32 32 32 32 33 34 35 37 38 39 40 41 41 40 40 40 40 40 40 39 39 39 39 38 38 38 38 38 38 38 37 37 37 36 36 35 35 34 34 33 32 31
50 48 48 48 48 48 49 49 49 48 48 48 47 47 46 45 45 44 43 43 42 41 40 39 38 37 36 35 34 34 36 37 39 38 37 36 34 33 33 33 33 32 32 31 30 30 30 31 32 33 34 35 36 37 39 40 40 40 39 39 39 39 39 39 39 38 38 38 38 38 38 37 37 37 37 37 37 36 36 35 35 34 34 33 32 31
47 47 47 48 48 48 48 48 48 47 47 47 46 46 45 44 43 43 42 41 40 39 38 38 37 36 35 34 33 33 34 36 38 37 36 35 34 33 32 32 32 32 31 31 30 29 28 29 30 31 32 33 34 36 37 39 39 39 39 38 38 38 38 38 38 38 38 37 37 37 37 37 37 36 36 36 36 36 35 35 35 34 34 33 32 31
46 46 47 47 47 47 47 47 47 46 46 45 45 44 44 43 42 42 41 40 39 38 37 36 35 35 34 33 33 33 34 36 37 37 36 35 33 32 31 31 30 31 31 31 30 29 28 27 28 29 31 31 32 34 36 38 39 39 39 38 37 37 37 37 37 37 37 37 37 36 36 36 36 36 36 35 35 35 35 35 34 34 34 33 33 32
45 45 46 46 46 46 46 46 45 45 44 44 43 43 42 42 41 41 40 39 38 37 36 35 35 34 34 33 33 33 34 35 36 36 35 34 33 32 31 30 30 30 30 30 31 30 29 27 27 28 29 30 31 32 34 36 37 38 38 38 37 36 36 36 36 36 36 36 36 36 35 35 35 35 35 34 34 34 34 34 34 34 34 33 33 32
44 44 44 44 44 44 44 44 44 43 43 42 42 41 41 41 40 40 39 39 38 37 36 35 35 34 34 34 34 34 35 35 36 35 35 34 33 31 30 30 30 30 29 30 30 30 30 28 28 27 27 28 29 30 32 34 36 37 37 37 37 36 35 35 35 35 35 35 35 35 35 34 34 34 33 33 33 33 33 33 33 33 33 33 33 32
42 43 43 43 43 43 43 42 42 41 41 41 40 40 40 40 39 39 39 38 38 37 36 36 35 35 35 34 34 35 35 36 36 36 35 34 33 32 31 30 30 30 29 29 29 29 29 29 28 28 27 27 28 29 31 32 34 35 36 36 36 35 35 34 34 34 34 33 33 33 33 33 33 32 32 31 31 31 31 32 32 33 33 33 32 32
41 41 41 41 41 41 41 40 40 40 40 39 39 39 39 39 39 39 39 38 38 38 37 37 37 36 36 36 36 35 35 36 36 36 35 34 33 32 31 30 30 30 30 29 29 28 28 28 28 28 27 27 27 28 29 31 32 34 35 35 35 35 34 34 33 33 32 32 32 32 32 31 31 30 30 29 29 30 30 31 31 31 32 32 31 31
39 39 39 39 39 39 39 39 39 39 39 39 38 38 39 39 39 39 39 38 38 38 38 38 38 38 38 37 37 36 36 36 36 36 36 35 34 33 32 31 31 30 30 29 29 28 28 27 27 28 28 27 27 27 28 29 31 32 33 34 34 34 34 33 32 32 31 30 30 30 29 29 28 28 27 28 28 28 29 29 30 30 30 30 30 30
37 37 37 37 37 37 38 38 38 38 38 38 38 38 38 38 38 39 39 39 39 39 39 39 39 39 39 39 38 38 37 37 36 36 36 35 35 34 33 32 31 31 30 30 29 28 28 27 27 27 27 27 27 27 27 28 29 30 31 32 33 33 33 33 32 31 30 29 28 27 27 26 26 25 26 26 26 27 27 27 27 27 28 28 29 29
36 36 36 36 37 37 37 37 38 38 38 38 38 39 39 39 39 39 39 39 39 39 39 39 39 40 40 40 40 39 38 37 37 36 36 36 35 34 33 32 31 31 30 30 30 29 28 28 28 27 27 27 27 27 27 27 27 28 29 30 31 32 33 32 31 30 28 26 25 24 24 23 23 23 24 24 25 25 25 25 25 25 26 27 28 29
35 35 36 36 37 37 37 38 38 38 39 39 39 39 39 39 39 40 40 40 40 40 39 39 40 40 40 41 40 40 39 38 38 37 36 36 35 34 33 32 31 30 30 30 30 29 29 29 28 28 28 27 26 26 26 26 26 27 27 28 29 31 31 31 30 28 26 24 22 21 21 21 21 22 22 22 22 22 22 23 23 24 25 26 27 29
35 35 36 37 37 38 38 39 39 40 40 40 40 40 40 40 40 41 41 41 41 41 40 40 40 40 40 41 41 40 40 39 38 38 37 36 35 34 33 32 31 30 30 29 29 29 29 29 29 29 28 28 26 25 25 25 25 26 26 26 27 28 30 30 28 26 23 21 19 19 19 19 19 19 20 20 20 20 21 21 22 24 25 26 28 29
35 36 37 38 39 39 40 40 41 41 41 41 41 41 41 41 41 41 42 42 42 42 41 41 40 40 41 41 41 41 40 40 39 38 37 36 35 34 33 32 31 30 29 29 29 29 29 29 29 29 29 28 27 25 24 24 24 24 24 24 25 26 27 27 26 23 20 18 17 17 17 17 17 17 17 18 18 19 20 21 22 24 26 27 28 29
36 37 38 39 40 40 41 41 42 42 42 42 42 42 42 42 42 42 42 42 42 42 42 41 41 40 40 40 40 40 40 40 39 38 37 36 35 34 33 32 31 30 29 29 28 28 29 29 29 29 29 28 27 25 23 22 22 22 23 23 23 24 24 24 23 21 19 17 16 16 15 15 15 15 15 16 18 19 20 22 23 25 26 28 28 29
37 38 39 40 40 41 42 42 43 43 43 43 43 43 43 43 43 43 43 43 43 43 42 42 41 40 39 39 39 39 39 39 39 39 38 36 35 34 32 31 30 29 29 28 28 28 28 29 29 30 29 28 26 24 22 20 19 20 21 21 21 21 22 22 21 19 18 17 16 14 13 13 13 13 15 16 18 20 21 23 24 26 27 28 28 28
38 39 40 41 41 42 43 43 43 44 44 44 44 45 45 45 45 45 44 44 44 44 43 42 41 40 39 38 37 37 37 37 38 38 37 37 35 34 32 31 30 29 28 28 28 28 28 28 29 29 29 28 25 23 20 18 17 17 18 19 19 19 20 20 19 18 17 16 14 13 12 12 12 13 15 17 19 20 22 23 25 26 27 27 27 27
38 40 41 41 42 43 43 44 44 44 45 45 45 46 46 46 46 46 46 46 45 45 44 43 42 40 39 37 36 35 35 35 35 36 36 36 35 33 32 30 29 28 28 28 28 28 29 29 29 29 28 26 23 21 18 16 15 15 16 17 18 18 18 17 17 16 15 14 13 12 12 12 13 14 16 18 19 21 22 24 25 25 26 26 26 25
39 40 41 42 43 43 44 44 45 45 46 46 47 47 48 48 48 48 47 47 46 45 44 43 41 40 38 37 35 34 33 32 32 33 33 33 33 32 31 30 29 28 27 27 28 28 29 30 29 28 26 23 20 17 15 14 13 14 15 16 17 17 16 15 14 13 12 12 12 13 13 14 15 16 17 18 19 21 22 23 23 24 24 24 24 24
40 41 42 43 44 44 45 45 45 46 46 47 48 48 49 49 49 49 48 47 46 45 43 42 40 38 37 35 34 32 31 30 30 30 30 30 30 30 29 29 28 27 27 27 28 28 29 30 29 27 23 19 16 13 12 12 13 13 13 14 14 14 14 13 12 11 11 11 12 13 14 15 16 17 17 18 18 19 20 21 22 22 23 23 23 23
41 42 43 44 44 45 45 46 46 47 47 48 49 49 50 50 50 49 48 47 45 43 41 40 38 36 35 33 32 31 30 29 28 27 27 27 27 26 26 26 26 25 26 26 27 28 28 29 28 25 20 16 13 11 10 10 11 12 12 12 12 12 11 11 11 11 11 12 13 14 15 16 17 17 16 16 16 17 18 19 21 22 23 23 23 23
42 43 44 44 45 45 46 46 47 47 48 48 49 50 50 50 49 48 46 45 43 41 39 37 35 34 32 31 30 29 28 27 26 25 25 24 23 23 23 22 23 23 24 24 25 26 27 27 27 24 19 15 12 10 8 8 9 10 11 10 10 10 10 10 11 12 13 14 14 15 16 16 16 15 14 13 13 14 16 18 20 22 23 24 24 24
43 44 44 45 45 46 46 47 47 48 48 49 49 49 49 48 47 45 44 42 40 38 36 35 33 31 29 28 27 26 25 24 23 23 22 22 21 20 20 20 20 21 21 22 22 23 23 25 25 23 19 15 12 10 7 6 7 8 9 9 9 9 10 10 11 13 14 15 16 16 16 16 14 13 11 10 11 12 14 17 20 23 24 25 25 25
44 44 45 45 46 46 46 47 48 48 49 49 48 47 46 45 44 42 40 39 37 35 34 32 30 29 27 25 24 23 22 21 21 20 20 19 19 19 19 19 19 19 19 19 19 20 20 21 22 22 20 16 12 9 7 5 5 6 8 9 9 10 10 11 12 14 15 16 16 16 15 14 12 10 9 9 10 11 14 17 20 23 25 26 26 26
Wind_Direction
300 300 300 300 299 299 299 299 299 299 299 299 300 300 300 300 300 300 300 301 301 301 301 301 301 301 300 300 300 300 300 300 299 299 299 299 299 298 298 298 297 297 296 295 294 294 293 292 292 291 291 290 290 289 289 288 288 287 286 285 284 283 283 282 281 280 279 279 278 277 277 276 275 274 273 273 272 271 270 269 268 267 266 266 265 264
300 300 300 300 300 300 300 300 300 300 300 300 300 301 301 301 301 301 301 301 301 301 301 301 301 301 301 301 301 301 301 300 300 300 300 300 299 299 298 298 297 296 296 295 294 293 293 292 292 292 291 291 290 289 289 288 288 287 286 285 284 283 282 281 280 280 279 278 277 277 276 275 274 273 272 271 270 269 268 268 267 266 266 265 265 264
301 300 300 300 301 301 301 301 301 301 301 301 301 301 302 302 302 302 302 302 302 302 302 302 302 302 302 302 302 302 301 301 301 301 300 300 299 299 298 297 297 296 295 294 293 293 293 292 292 292 291 291 290 289 289 288 288 287 286 285 284 283 282 281 280 279 278 277 276 275 274 273 272 271 270 269 268 267 267 267 266 266 266 266 265 265
301 301 301 301 301 301 302 302 302 302 302 302 302 302 302 303 302 302 302 303 303 303 303 303 303 303 303 303 302 302 302 301 301 301 300 300 299 298 297 297 296 295 294 293 293 293 293 292 292 291 291 290 290 289 289 288 287 287 285 284 283 282 282 281 280 279 277 276 274 273 271 270 269 268 267 267 266 266 266 266 266 266 266 266 265 265
302 302 302 302 302 302 303 303 303 303 303 303 303 303 303 303 303 303 303 303 303 303 303 304 304 304 303 303 303 302 302 301 301 300 300 299 298 297 296 295 294 294 293 293 293 293 292 292 291 291 290 290 289 289 288 288 287 286 285 284 283 282 281 280 279 278 276 274 272 270 269 268 267 266 266 266 266 266 267 266 266 266 266 265 265 264
302 303 303 303 303 304 304 304 304 304 304 304 304 304 304 304 304 304 304 304 304 304 304 304 304 304 304 303 303 302 302 301 300 300 299 298 297 296 295 294 293 293 292 292 292 292 292 291 291 290 290 289 289 288 288 287 286 285 284 283 282 281 281 280 278 276 274 272 270 268 267 266 266 266 266 267 267 268 268 267 267 267 266 266 265 265
303 304 304 304 305 305 305 305 305 304 304 304 304 304 304 304 304 304 305 305 305 305 305 305 305 305 304 303 303 302 301 300 299 299 298 297 295 294 293 293 292 292 292 292 292 292 291 291 290 290 289 289 288 288 287 287 286 285 283 282 281 280 279 277 276 274 272 270 268 267 267 267 267 268 269 269 269 269 269 269 269 268 268 268 268 267
305 305 305 305 305 305 305 305 305 305 305 305 304 304 304 305 305 305 305 305 305 306 306 305 305 305 304 303 302 301 300 299 298 297 296 295 294 293 292 292 292 292 292 292 292 292 291 291 290 290 289 289 289 288 287 287 285 284 283 281 280 279 277 275 273 271 270 268 268 268 268 268 269 270 270 270 270 270 270 270 269 269 270 270 270 270
306 306 306 306 306 306 306 305 305 305 305 305 305 305 305 305 305 305 306 306 306 306 306 305 305 304 303 302 301 300 299 298 297 296 294 293 293 292 292 292 292 292 293 293 293 292 291 291 290 290 290 289 289 288 288 286 285 284 282 280 279 277 276 274 272 271 269 268 268 268 269 270 271 271 271 270 270 269 269 269 269 269 269 269 269 269
306 306 306 306 306 306 306 305 305 305 305 305 305 305 306 306 306 306 306 306 306 306 306 305 304 303 302 301 299 298 297 296 295 294 293 292 291 291 291 292 292 293 293 293 292 292 291 291 291 290 290 290 290 289 288 287 285 283 281 279 278 276 275 274 273 271 270 270 270 270 271 271 271 271 270 269 268 268 268 267 268 268 268 268 268 268
306 306 306 306 306 306 305 305 305 305 305 305 306 306 306 306 307 307 307 307 306 306 305 304 303 302 300 299 298 297 295 295 294 293 293 292 291 291 291 292 292 293 293 292 292 291 291 291 291 291 291 290 290 289 288 287 285 283 280 279 278 277 276 275 274 273 272 272 271 272 272 272 272 271 270 269 268 268 268 268 268 268 268 268 267 267
306 306 306 306 306 306 306 306 305 306 306 306 306 307 307 307 307 307 307 306 306 305 304 304 303 301 299 297 296 295 294 293 292 292 292 292 292 292 292 292 293 293 292 292 291 291 291 291 291 291 291 291 290 290 288 287 285 282 280 279 278 278 278 277 276 275 274 273 273 273 274 273 272 271 270 269 269 269 269 270 270 270 270 270 269 268
307 307 306 306 306 306 306 306 306 306 307 307 307 307 307 307 307 307 307 306 305 305 304 303 302 300 298 296 294 293 292 292 291 291 291 291 291 292 292 293 293 293 292 292 291 290 290 291 291 291 292 292 291 290 289 287 285 283 281 279 279 279 279 278 277 276 275 275 275 275 275 274 273 272 271 270 270 271 272 272 273 273 273 273 272 271
307 307 307 307 307 307 307 307 307 307 307 308 308 308 308 307 307 307 306 306 305 304 303 302 300 298 296 294 293 292 291 291 291 291 291 291 291 291 292 292 292 292 292 291 290 290 290 290 291 291 292 292 291 290 289 288 286 283 281 280 280 281 280 280 279 278 277 277 277 276 276 275 273 272 271 271 272 273 274 275 276 276 276 275 275 274
307 307 307 307 307 308 308 308 308 308 308 308 308 308 308 307 307 306 306 305 304 303 302 301 299 297 295 293 291 291 291 291 291 291 291 291 291 291 291 291 292 291 291 290 289 288 289 289 290 290 291 291 290 290 289 288 286 284 283 282 282 282 282 281 280 279 278 278 278 277 277 276 274 273 272 272 273 274 276 277 277 278 277 277 276 276
308 308 308 308 308 308 308 309 309 309 308 308 308 308 308 307 306 306 305 304 303 302 301 299 298 296 295 293 292 291 291 291 291 291 291 291 290 290 291 291 291 290 290 289 288 287 287 288 288 289 289 289 289 289 288 288 286 285 284 283 283 283 283 282 281 280 279 279 278 278 277 276 274 273 273 273 274 276 277 278 279 279 278 278 277 277
308 309 309 309 309 309 309 309 309 309 309 308 308 308 307 306 306 305 304 303 302 301 300 298 296 294 293 292 292 291 291 291 291 291 291 290 290 290 290 290 290 289 289 287 287 286 286 286 287 287 287 287 287 287 287 287 286 285 284 284 283 283 283 282 281 281 280 279 279 278 277 276 275 274 274 274 275 277 278 279 279 279 279 278 278 278
309 309 309 310 310 310 310 309 309 309 308 308 308 307 307 306 305 304 304 303 301 300 299 298 296 294 292 291 290 290 290 291 291 291 290 290 289 289 289 289 289 288 287 286 285 285 285 285 285 285 285 285 285 286 286 286 285 284 284 283 283 283 282 282 281 280 280 279 279 278 277 276 276 275 275 275 276 277 278 279 279 279 278 278 278 279
310 310 310 310 310 310 310 309 309 308 308 307 307 306 306 305 305 304 303 302 301 300 299 298 296 295 293 292 290 290 290 290 290 290 290 289 288 288 288 288 287 287 286 285 284 283 283 283 282 282 282 283 283 283 284 284 284 283 282 282 282 281 281 280 280 279 279 279 278 278 277 277 276 276 276 276 277 277 278 279 278 278 278 278 278 279
310 310 310 310 310 310 310 309 308 308 307 307 306 306 305 305 304 304 303 302 301 300 299 298 297 295 294 293 291 291 290 290 290 289 289 288 288 287 286 286 286 285 284 283 282 282 281 281 280 280 280 280 281 281 282 282 282 282 281 281 281 280 280 279 279 278 278 278 278 278 277 277 277 276 276 276 277 277 278 278 278 278 278 278 278 279
311 311 311 310 310 310 309 309 308 307 307 306 306 306 305 305 305 304 303 302 301 300 300 299 298 296 295 294 292 291 291 290 290 289 289 288 287 286 285 284 284 283 282 281 281 280 280 279 279 278 278 279 279 279 280 280 281 280 280 280 280 279 279 278 278 277 277 277 277 277 277 277 276 276 276 276 277 277 277 278 278 277 277 277 278 278
311 311 311 310 310 309 309 308 307 307 307 307 306 306 306 306 305 304 303 303 302 301 300 300 298 297 296 295 293 292 292 291 290 289 289 288 286 285 284 283 282 282 281 280 279 279 279 279 278 278 278 278 278 278 278 279 279 279 279 279 279 279 278 278 277 276 276 276 276 276 276 276 276 276 276 276 276 277 277 277 277 277 276 276 276 277
312 311 311 310 309 309 308 308 307 307 307 307 307 307 306 306 306 305 304 304 303 302 302 301 300 298 297 296 295 294 293 292 291 290 289 288 287 285 284 283 282 281 280 280 279 279 279 279 279 279 278 278 278 278 278 277 278 278 278 278 278 278 277 277 276 275 275 275 275 275 275 275 275 275 275 275 276 276 277 277 277 276 275 275 275 275
311 311 310 310 309 308 308 308 308 308 307 308 308 308 307 307 307 306 306 305 304 304 303 302 301 300 299 298 297 296 294 293 292 292 291 290 288 287 285 284 283 282 281 281 280 280 280 281 281 280 280 279 279 278 277 277 277 276 276 276 277 276 276 275 275 274 274 274 274 274 273 274 274 274 274 275 275 276 276 276 276 275 274 274 274 274
311 310 309 309 309 308 308 308 308 308 308 308 308 308 308 308 308 308 307 307 306 306 305 304 303 301 300 300 299 297 296 295 294 293 293 292 290 289 287 286 285 284 283 282 282 282 282 282 282 282 282 281 280 279 278 277 277 276 275 275 275 275 275 274 274 273 273 273 272 272 272 272 273 273 273 274 274 275 275 276 275 275 274 273 272 273
310 310 309 309 309 309 309 309 309 309 309 309 309 309 309 309 309 309 308 308 307 307 306 305 304 303 302 301 300 298 297 296 295 295 295 294 293 291 290 289 287 286 285 285 284 284 284 284 284 284 283 283 282 281 280 279 277 276 275 275 274 274 274 273 273 273 272 272 272 271 271 271 271 272 272 273 273 274 274 275 274 274 273 272 271 271
310 309 309 309 309 310 310 310 310 310 310 310 310 310 310 310 310 309 309 308 308 307 307 306 305 304 303 302 301 299 298 297 296 296 296 296 295 294 293 291 290 289 287 287 286 286 286 286 285 285 285 284 284 283 282 280 279 277 276 275 274 273 273 273 272 272 271 271 271 270 270 270 270 270 271 271 272 272 273 274 273 273 272 271 270 270
310 310 310 310 310 311 311 311 311 311 311 311 311 311 311 311 311 310 310 309 308 308 307 307 306 305 304 303 302 300 299 298 297 298 298 298 298 297 295 294 292 291 290 289 288 288 288 288 287 286 286 286 285 284 283 282 280 278 277 276 274 273 272 272 271 271 271 270 270 270 269 269 269 269 269 270 270 271 272 272 272 272 271 270 269 269
310 311 311 311 312 312 312 312 312 312 312 312 312 312 312 312 312 311 310 310 310 309 309 308 307 307 305 304 303 302 300 299 299 299 300 300 300 299 298 296 295 293 292 290 289 289 289 289 288 287 287 287 287 286 285 283 282 280 278 276 275 274 272 271 271 270 270 270 269 269 269 268 268 268 268 269 269 270 270 271 271 271 270 269 268 267
312 312 313 313 313 313 313 313 313 313 313 313 313 313 313 313 313 312 312 311 311 310 310 310 309 308 307 306 304 303 301 300 300 301 301 301 301 300 299 298 297 295 294 292 291 290 289 289 289 288 288 287 287 287 286 285 283 281 280 278 276 274 273 271 270 270 270 269 269 269 268 268 267 267 267 267 268 268 269 270 270 270 269 268 266 266
313 313 314 314 314 314 314 314 315 315 315 315 315 314 314 314 314 313 313 313 312 312 311 311 310 309 308 306 305 303 301 300 300 301 302 302 302 301 301 299 298 297 296 294 293 291 289 287 288 288 288 288 288 287 287 286 285 283 281 279 277 275 273 272 270 270 269 269 269 268 268 267 267 266 266 266 266 267 268 269 270 270 269 267 265 264
313 314 314 315 315 315 316 316 316 316 316 316 316 316 316 315 315 315 315 314 313 313 312 311 310 309 308 307 305 304 302 301 301 302 302 302 302 302 301 300 298 297 296 296 295 293 291 289 288 287 288 288 288 287 287 286 285 284 283 281 279 277 275 272 271 270 269 269 268 268 267 267 266 265 265 265 265 266 268 269 270 269 268 266 264 263
315 315 316 316 317 317 317 318 318 318 318 318 318 317 317 317 316 316 316 315 314 313 312 311 310 309 307 306 305 304 303 302 302 302 302 302 302 302 301 300 298 297 297 296 296 295 294 293 291 289 289 289 288 288 287 286 286 285 284 283 281 278 276 274 272 270 269 269 268 268 267 267 266 265 265 265 265 266 267 269 270 269 268 266 264 262
316 317 317 318 319 319 320 320 320 320 320 320 320 319 319 318 318 317 317 316 315 314 312 311 310 308 307 305 304 304 303 302 302 302 302 302 302 301 301 300 299 298 297 297 296 296 296 295 294 293 291 290 290 289 288 287 286 285 284 283 282 280 278 275 273 271 270 269 268 268 267 266 266 265 265 265 265 267 268 270 270 269 267 265 263 262
318 319 320 321 321 322 322 322 323 323 322 322 321 321 320 320 319 318 317 316 315 314 312 311 309 308 306 305 304 303 302 302 302 302 302 302 302 301 301 300 300 299 298 297 297 297 297 297 296 295 294 293 291 290 289 287 286 285 284 283 282 281 279 277 275 273 271 270 269 268 267 267 266 265 265 265 266 268 270 270 270 269 267 265 263 262
321 322 323 324 324 324 325 325 325 324 324 324 323 323 322 321 320 319 318 316 315 314 312 311 309 308 306 305 304 303 302 302 302 301 301 301 301 301 301 301 300 300 299 299 298 298 298 297 297 297 296 295 293 291 289 287 286 285 284 283 282 281 279 278 275 274 272 271 270 269 268 267 266 266 266 267 268 270 271 271 270 268 266 265 263 263
324 325 326 326 326 326 326 326 326 325 325 324 324 324 323 322 321 320 319 317 316 314 313 311 310 308 307 306 305 304 303 303 302 301 301 301 301 301 301 301 301 300 300 300 299 299 298 298 298 297 297 296 295 293 290 287 285 284 283 282 282 281 279 278 276 275 273 272 271 269 268 267 267 267 267 269 270 271 271 271 269 268 266 265 265 265
327 327 327 327 327 327 327 326 326 325 325 324 324 323 323 322 322 321 319 318 317 315 314 313 311 310 308 307 307 306 305 304 303 302 302 302 302 302 302 301 301 301 300 300 300 300 300 299 299 299 298 297 296 294 292 288 285 283 281 281 280 279 279 278 276 275 274 273 271 269 268 267 267 268 270 271 272 272 271 270 269 268 267 267 268 269
328 328 328 328 327 327 326 325 325 324 323 323 323 322 322 322 321 320 319 318 317 317 316 314 313 312 310 309 308 307 306 306 305 304 303 302 302 302 302 302 301 301 301 301 301 301 301 301 301 301 300 299 297 295 292 289 286 283 280 279 278 277 277 277 276 276 275 273 270 268 267 268 269 270 271 271 271 271 271 270 270 270 271 272 273 274
329 328 328 327 326 326 325 324 323 323 322 321 321 321 321 320 320 319 319 318 317 317 316 316 314 313 312 310 309 309 308 307 306 305 304 303 303 302 302 302 302 302 301 301 302 302 302 302 302 302 302 301 299 297 293 290 286 283 279 276 275 275 275 276 276 276 275 273 270 269 269 270 271 271 271 271 270 271 272 272 273 275 276 276 277 278
328 328 327 326 325 324 324 323 322 322 321 320 320 320 320 319 319 319 318 318 317 317 316 316 315 314 313 311 310 309 309 308 306 305 304 304 303 303 303 302 302 302 302 302 302 303 303 303 303 303 303 302 301 298 295 291 287 282 278 274 272 271 272 274 275 275 274 273 272 272 272 272 271 271 271 271 272 273 275 276 278 279 280 281 281 282
328 327 326 325 325 324 323 323 322 321 321 320 320 320 319 319 319 318 318 317 317 316 316 315 314 314 313 312 311 310 309 308 307 306 305 304 303 303 303 303 303 303 303 303 303 304 304 304 304 304 303 303 302 300 296 292 287 282 277 273 269 268 269 271 273 274 275 275 275 275 273 272 271 271 272 274 276 278 280 282 282 283 283 284 284 285
328 327 326 325 325 324 323 323 322 322 322 321 321 320 320 319 319 318 318 317 316 316 315 314 313 313 312 311 310 310 309 308 307 306 305 304 304 303 304 304 304 304 305 305 305 305 305 305 305 305 305 304 303 301 298 292 286 280 275 271 269 267 266 268 270 273 275 276 275 274 272 272 272 274 277 280 283 285 286 286 286 285 285 286 286 287
328 327 326 326 325 324 324 323 323 323 322 322 322 321 321 320 320 319 318 317 316 315 314 313 312 312 311 310 309 309 308 308 307 306 305 305 304 304 304 305 305 306 306 307 307 306 306 306 306 306 306 306 305 303 298 291 284 277 272 269 267 265 265 266 268 271 274 275 275 275 274 275 278 281 284 287 289 289 289 289 288 287 287 288 289 289
328 328 327 326 325 325 324 324 324 323 323 323 322 322 321 321 320 319 319 318 316 315 314 313 312 311 310 309 308 307 307 306 306 305 305 304 304 305 305 306 307 307 308 308 308 308 308 308 307 307 307 307 306 304 300 292 282 273 269 267 266 266 266 266 268 269 272 275 278 280 282 284 287 289 291 292 292 292 291 290 289 289 289 290 290 290
329 328 327 327 326 325 325 325 324 324 324 323 323 322 322 321 321 320 319 318 316 315 314 313 311 310 309 308 307 306 305 304 304 304 303 304 304 305 306 307 308 309 309 310 310 310 310 310 309 309 309 308 308 306 301 292 281 272 267 265 265 266 267 267 269 271 274 278 282 286 289 292 293 295 295 295 294 292 291 290 289 290 290 290 291 291
330 329 328 327 326 326 325 325 325 325 324 324 324 323 322 322 321 320 319 318 317 315 314 313 312 311 310 308 307 305 304 303 303 302 302 302 303 304 305 307 308 309 310 311 312 312 311 311 311 311 311 311 311 308 301 292 282 275 269 266 266 267 269 271 274 277 280 283 286 289 292 294 295 296 296 296 294 292 291 290 290 290 291 292 293 293
330 329 328 328 327 326 326 325 325 325 325 324 324 324 323 322 321 321 320 319 318 317 315 314 313 312 311 309 307 306 304 303 302 302 302 302 303 304 305 306 308 309 311 312 312 312 312 311 311 311 313 314 314 312 304 292 283 278 274 270 269 271 273 277 279 283 285 287 289 291 293 294 296 297 297 296 294 292 290 290 291 292 293 295 295 295
331 330 329 328 327 327 326 326 326 325 325 325 325 324 323 323 322 322 321 321 320 319 318 317 315 314 312 310 308 306 305 304 303 303 303 304 304 305 306 307 308 309 310 311 311 311 311 309 309 310 313 315 316 314 307 293 283 279 277 275 274 275 277 280 284 287 289 291 293 294 295 297 298 298 297 295 291 288 288 289 291 293 294 295 295 295
331 330 329 328 328 327 327 326 326 326 326 326 325 325 325 325 325 325 324 324 323 322 321 320 318 316 314 312 310 308 306 306 305 305 305 306 307 308 309 309 310 311 311 311 310 309 308 307 307 308 313 318 321 319 311 294 281 277 278 279 280 281 283 285 287 289 291 293 295 296 298 299 299 298 295 291 286 284 285 288 289 291 293 293 293 293
332 331 330 329 329 328 328 328 327 327 327 327 327 328 328 328 329 329 328 328 327 326 325 323 321 320 317 315 313 311 309 308 307 308 308 309 311 312 313 313 313 313 312 311 310 308 306 305 304 306 310 319 327 330 322 307 284 275 276 281 284 287 289 289 290 291 292 293 295 296 297 297 297 295 292 289 286 285 286 288 289 290 291 292 292 292
Height
5595 5593 5591 5589 5587 5585 5582 5580 5578 5575 5573 5570 5568 5566 5563 5560 5557 5553 5551 5547 5544 5540 5538 5534 5531 5528 5524 5520 5516 5512 5508 5504 5501 5497 5493 5490 5486 5483 5479 5476 5473 5469 5466 5463 5460 5457 5454 5452 5450 5447 5445 5443 5441 5438 5437 5435 5433 5431 5429 5428 5426 5424 5423 5422 5420 5419 5418 5417 5416 5416 5415 5415 5414 5414 5413 5413 5413 5413 5413 5413 5413 5413 5413 5414 5414 5414
5590 5587 5585 5583 5581 5579 5576 5573 5571 5569 5566 5563 5561 5558 5556 5553 5550 5546 5543 5540 5536 5533 5530 5526 5523 5519 5515 5511 5507 5503 5498 5494 5490 5487 5483 5479 5476 5473 5469 5466 5463 5459 5456 5453 5451 5448 5446 5444 5442 5440 5438 5436 5434 5432 5430 5428 5427 5425 5424 5422 5421 5420 5418 5417 5416 5415 5414 5414 5413 5412 5412 5411 5411 5411 5410 5410 5410 5410 5410 5410 5410 5410 5410 5411 5411 5411
5584 5582 5579 5577 5575 5573 5570 5567 5564 5562 5559 5556 5553 5551 5548 5546 5543 5539 5536 5533 5529 5525 5522 5518 5514 5510 5506 5502 5497 5493 5489 5484 5480 5477 5473 5470 5466 5463 5460 5457 5453 5451 5448 5445 5443 5441 5439 5437 5435 5433 5432 5430 5428 5426 5425 5423 5422 5420 5419 5418 5417 5416 5415 5413 5413 5412 5411 5410 5410 5409 5408 5408 5408 5408 5407 5407 5407 5407 5407 5407 5407 5408 5408 5408 5408 5409
5579 5576 5574 5571 5569 5567 5564 5561 5558 5554 5552 5549 5546 5543 5541 5538 5535 5532 5528 5525 5521 5518 5513 5509 5505 5502 5497 5492 5488 5483 5479 5475 5471 5467 5463 5460 5457 5454 5451 5448 5446 5443 5441 5438 5437 5435 5433 5431 5429 5428 5426 5424 5423 5422 5420 5419 5418 5416 5415 5414 5413 5412 5411 5410 5409 5409 5408 5407 5407 5406 5406 5405 5405 5404 5404 5404 5404 5404 5404 5404 5405 5405 5405 5405 5405 5406
5573 5570 5568 5565 5563 5560 5557 5554 5551 5547 5544 5541 5539 5536 5533 5530 5527 5523 5520 5517 5513 5509 5505 5501 5496 5492 5487 5482 5478 5473 5470 5466 5462 5458 5455 5452 5449 5446 5443 5441 5439 5437 5435 5433 5431 5429 5428 5426 5424 5423 5421 5420 5418 5417 5416 5415 5413 5413 5411 5410 5409 5408 5408 5407 5406 5406 5405 5404 5404 5403 5403 5402 5402 5402 5402 5402 5402 5402 5402 5402 5402 5402 5402 5402 5403 5403
5567 5564 5561 5558 5556 5553 5550 5547 5543 5540 5537 5534 5531 5528 5526 5523 5519 5516 5512 5508 5504 5501 5497 5492 5487 5483 5478 5473 5468 5464 5461 5457 5454 5450 5447 5444 5442 5439 5437 5435 5433 5431 5429 5428 5426 5424 5423 5421 5420 5418 5417 5416 5414 5413 5412 5411 5410 5409 5408 5407 5406 5405 5405 5404 5403 5403 5402 5401 5401 5400 5400 5399 5399 5399 5399 5399 5399 5399 5399 5399 5399 5399 5399 5399 5399 5399
5561 5558 5555 5552 5548 5546 5543 5540 5536 5532 5529 5526 5523 5521 5518 5515 5512 5508 5504 5500 5496 5492 5488 5483 5478 5473 5468 5463 5459 5455 5452 5449 5446 5443 5440 5438 5436 5433 5432 5430 5428 5426 5424 5423 5421 5420 5418 5417 5415 5414 5413 5412 5410 5409 5408 5407 5406 5405 5404 5404 5403 5403 5402 5401 5401 5400 5399 5398 5398 5398 5397 5397 5397 5397 5397 5397 5396 5396 5396 5396 5396 5396 5396 5396 5396 5396
5554 5551 5548 5546 5543 5539 5535 5532 5529 5525 5522 5518 5516 5513 5511 5508 5504 5500 5497 5493 5487 5482 5478 5474 5470 5464 5459 5454 5450 5447 5444 5441 5439 5437 5434 5432 5430 5428 5427 5425 5423 5421 5420 5418 5417 5415 5414 5413 5411 5410 5409 5408 5407 5406 5404 5403 5403 5402 5401 5400 5400 5399 5399 5398 5398 5397 5396 5396 5395 5395 5394 5394 5394 5394 5394 5393 5393 5393 5393 5393 5393 5393 5393 5393 5393 5393
5548 5545 5542 5539 5536 5533 5530 5526 5522 5518 5515 5512 5508 5505 5503 5500 5496 5492 5488 5484 5480 5474 5469 5466 5461 5457 5451 5446 5442 5440 5438 5435 5433 5431 5429 5427 5425 5423 5422 5420 5419 5417 5415 5414 5412 5411 5409 5408 5407 5406 5405 5404 5403 5402 5401 5399 5399 5398 5397 5397 5396 5396 5396 5395 5395 5394 5393 5393 5392 5392 5392 5391 5391 5391 5391 5391 5391 5390 5390 5390 5390 5390 5390 5389 5389 5389
5542 5539 5536 5533 5529 5527 5524 5520 5515 5511 5508 5504 5501 5497 5494 5492 5488 5484 5479 5475 5471 5466 5462 5458 5453 5449 5444 5439 5434 5432 5432 5430 5428 5425 5424 5423 5421 5419 5417 5416 5414 5413 5411 5410 5408 5407 5405 5404 5403 5402 5401 5400 5398 5398 5397 5396 5395 5394 5393 5393 5393 5393 5392 5392 5391 5391 5390 5390 5389 5389 5388 5388 5388 5388 5388 5388 5388 5388 5388 5388 5387 5387 5387 5387 5387 5386
5536 5533 5530 5527 5523 5519 5516 5513 5509 5505 5501 5497 5493 5489 5485 5482 5479 5477 5472 5468 5463 5458 5454 5450 5445 5442 5438 5434 5429 5426 5425 5425 5423 5421 5419 5418 5416 5414 5413 5412 5410 5409 5408 5406 5404 5403 5401 5400 5399 5398 5397 5396 5394 5393 5393 5392 5391 5390 5390 5389 5389 5389 5389 5388 5388 5388 5387 5386 5386 5386 5385 5385 5385 5385 5385 5385 5384 5384 5384 5384 5384 5384 5384 5383 5383 5383
5530 5527 5523 5520 5517 5513 5509 5505 5501 5497 5494 5490 5487 5482 5477 5473 5469 5467 5464 5460 5455 5451 5448 5443 5438 5434 5430 5428 5425 5422 5420 5420 5419 5418 5416 5413 5411 5409 5409 5408 5406 5405 5403 5402 5400 5398 5397 5396 5395 5394 5393 5392 5390 5389 5388 5388 5387 5386 5386 5386 5386 5386 5386 5385 5385 5384 5383 5383 5383 5382 5382 5382 5382 5382 5382 5381 5381 5381 5381 5381 5381 5380 5380 5380 5380 5380
5523 5520 5517 5513 5509 5506 5502 5498 5493 5489 5485 5482 5478 5474 5470 5465 5461 5457 5454 5451 5447 5443 5441 5438 5433 5428 5424 5421 5419 5418 5417 5416 5415 5414 5413 5410 5407 5405 5404 5403 5402 5401 5399 5398 5396 5394 5393 5392 5391 5390 5389 5388 5386 5385 5384 5383 5383 5383 5383 5382 5382 5382 5382 5382 5381 5381 5380 5380 5379 5379 5379 5379 5378 5378 5378 5378 5378 5378 5378 5378 5377 5377 5376 5376 5376 5376
5517 5513 5509 5506 5502 5498 5494 5490 5485 5481 5477 5473 5469 5466 5462 5457 5453 5449 5446 5443 5439 5435 5433 5432 5429 5424 5420 5416 5413 5413 5413 5412 5412 5411 5409 5406 5403 5401 5401 5400 5398 5397 5396 5394 5392 5390 5389 5388 5387 5386 5385 5383 5383 5381 5381 5380 5379 5379 5379 5379 5379 5379 5379 5378 5378 5378 5377 5376 5376 5376 5375 5375 5375 5375 5375 5375 5374 5374 5374 5374 5373 5373 5373 5373 5373 5372
5510 5506 5502 5498 5494 5490 5486 5481 5477 5473 5468 5464 5461 5457 5453 5449 5444 5441 5438 5436 5433 5429 5427 5425 5423 5420 5416 5412 5409 5408 5408 5408 5408 5408 5407 5403 5399 5397 5397 5396 5395 5393 5392 5390 5388 5386 5385 5384 5383 5382 5381 5380 5379 5378 5377 5376 5376 5376 5375 5375 5375 5375 5375 5375 5374 5374 5373 5373 5373 5372 5372 5372 5372 5372 5371 5371 5371 5371 5371 5370 5370 5370 5369 5369 5369 5369
5503 5499 5494 5490 5486 5482 5478 5473 5469 5465 5460 5456 5452 5448 5445 5442 5438 5434 5431 5429 5427 5424 5422 5420 5419 5416 5413 5408 5404 5403 5404 5404 5404 5403 5403 5401 5396 5393 5393 5392 5391 5390 5388 5386 5384 5383 5382 5381 5379 5378 5377 5376 5375 5374 5374 5373 5373 5372 5372 5372 5372 5372 5372 5372 5371 5371 5370 5369 5369 5369 5369 5368 5368 5368 5368 5368 5368 5367 5367 5367 5366 5366 5366 5366 5366 5365
5496 5492 5487 5483 5478 5474 5470 5465 5461 5456 5452 5449 5445 5441 5438 5434 5431 5428 5426 5423 5421 5419 5417 5415 5414 5413 5410 5406 5401 5398 5399 5400 5400 5399 5399 5397 5393 5389 5388 5388 5387 5386 5384 5383 5381 5379 5378 5377 5376 5375 5373 5373 5372 5371 5370 5370 5369 5369 5369 5368 5368 5368 5368 5368 5368 5367 5367 5366 5366 5365 5365 5365 5365 5365 5364 5364 5364 5364 5363 5363 5363 5363 5363 5362 5362 5362
5488 5484 5479 5475 5470 5466 5463 5458 5453 5448 5444 5441 5438 5435 5432 5428 5425 5423 5420 5418 5416 5414 5412 5410 5409 5408 5406 5403 5399 5395 5394 5396 5396 5395 5394 5393 5389 5386 5384 5383 5383 5382 5381 5379 5377 5375 5374 5373 5372 5371 5370 5369 5368 5368 5367 5367 5366 5366 5365 5365 5365 5365 5365 5365 5364 5364 5363 5363 5362 5362 5362 5362 5361 5361 5361 5361 5361 5360 5360 5360 5359 5359 5359 5359 5358 5358
5481 5476 5472 5467 5463 5458 5454 5450 5446 5442 5438 5434 5432 5429 5427 5423 5420 5418 5415 5413 5411 5409 5408 5406 5404 5402 5400 5398 5395 5391 5390 5391 5391 5390 5390 5389 5386 5383 5380 5380 5379 5378 5377 5375 5373 5372 5371 5370 5368 5367 5366 5365 5365 5364 5364 5363 5363 5363 5362 5362 5361 5361 5361 5361 5361 5360 5360 5359 5359 5358 5358 5358 5358 5358 5358 5357 5357 5357 5357 5356 5356 5356 5356 5355 5355 5355
5474 5469 5464 5460 5456 5452 5447 5442 5438 5435 5431 5428 5426 5423 5421 5419 5416 5413 5411 5408 5407 5405 5403 5402 5399 5397 5395 5393 5390 5387 5386 5386 5386 5386 5385 5384 5382 5379 5377 5376 5375 5375 5373 5372 5370 5368 5367 5366 5365 5363 5362 5361 5361 5360 5360 5360 5359 5359 5358 5358 5358 5358 5358 5358 5357 5357 5356 5356 5355 5355 5355 5355 5354 5354 5354 5354 5354 5353 5353 5353 5353 5352 5352 5352 5352 5351
5466 5461 5456 5452 5448 5445 5441 5436 5432 5428 5425 5423 5420 5418 5416 5414 5412 5409 5407 5405 5403 5401 5399 5397 5395 5393 5390 5388 5386 5383 5381 5381 5381 5381 5381 5380 5378 5376 5373 5372 5372 5371 5370 5368 5366 5365 5363 5362 5361 5359 5358 5357 5357 5357 5356 5356 5356 5355 5354 5354 5354 5354 5353 5353 5353 5353 5353 5352 5352 5351 5351 5351 5351 5351 5351 5350 5350 5350 5350 5349 5349 5349 5348 5348 5348 5348
5458 5454 5449 5444 5440 5437 5434 5430 5426 5422 5419 5417 5416 5413 5411 5409 5407 5405 5402 5401 5399 5397 5395 5393 5390 5388 5386 5383 5381 5378 5376 5376 5376 5376 5376 5376 5374 5372 5370 5368 5368 5367 5366 5364 5363 5361 5360 5358 5357 5355 5354 5353 5353 5353 5352 5352 5352 5351 5351 5350 5350 5350 5350 5349 5349 5349 5348 5348 5348 5348 5348 5348 5347 5347 5347 5347 5347 5346 5346 5346 5346 5345 5345 5345 5345 5344
5450 5446 5442 5438 5433 5430 5427 5424 5421 5418 5415 5413 5411 5409 5407 5405 5403 5401 5398 5397 5395 5393 5391 5388 5386 5383 5381 5378 5376 5373 5372 5371 5370 5371 5371 5371 5370 5368 5366 5364 5364 5363 5362 5361 5359 5357 5356 5354 5353 5351 5350 5349 5349 5348 5348 5348 5348 5347 5347 5346 5346 5346 5346 5345 5345 5345 5345 5344 5344 5344 5344 5344 5343 5343 5343 5343 5343 5343 5343 5342 5342 5342 5342 5341 5341 5341
5443 5439 5435 5431 5428 5425 5422 5419 5417 5414 5411 5409 5407 5405 5403 5402 5399 5397 5394 5392 5390 5388 5386 5384 5382 5379 5377 5374 5372 5369 5367 5365 5365 5366 5366 5366 5365 5364 5362 5361 5360 5359 5358 5357 5355 5354 5353 5351 5349 5347 5346 5345 5345 5344 5344 5343 5343 5343 5343 5342 5342 5342 5341 5341 5341 5341 5341 5340 5340 5340 5340 5340 5340 5340 5339 5339 5339 5339 5339 5339 5338 5338 5338 5338 5338 5338
5437 5433 5429 5426 5423 5420 5418 5415 5413 5410 5408 5406 5405 5403 5400 5397 5394 5391 5389 5386 5384 5383 5381 5379 5378 5375 5373 5371 5368 5365 5362 5361 5360 5360 5361 5361 5361 5360 5358 5357 5356 5355 5354 5353 5352 5350 5349 5348 5346 5343 5342 5341 5340 5340 5339 5339 5338 5338 5338 5338 5338 5338 5337 5337 5337 5337 5337 5336 5336 5336 5336 5336 5336 5336 5336 5336 5335 5335 5335 5335 5335 5335 5334 5334 5334 5334
5431 5428 5424 5422 5419 5416 5414 5412 5409 5407 5404 5402 5400 5398 5395 5393 5390 5388 5385 5383 5381 5379 5377 5375 5373 5371 5369 5367 5364 5361 5358 5356 5356 5356 5356 5356 5356 5355 5354 5353 5352 5351 5350 5349 5348 5347 5346 5344 5342 5340 5338 5337 5336 5336 5335 5334 5334 5334 5334 5333 5333 5333 5333 5333 5333 5333 5332 5332 5332 5332 5332 5332 5332 5332 5332 5332 5332 5332 5332 5331 5331 5331 5331 5331 5331 5331
5425 5423 5420 5418 5415 5413 5410 5408 5405 5403 5400 5398 5395 5393 5392 5389 5387 5385 5382 5379 5377 5375 5373 5371 5369 5367 5365 5363 5361 5358 5355 5353 5352 5352 5352 5352 5352 5351 5350 5349 5348 5347 5346 5346 5345 5344 5343 5341 5339 5337 5335 5334 5333 5332 5331 5330 5330 5329 5329 5329 5329 5329 5328 5328 5328 5328 5328 5328 5328 5328 5328 5328 5328 5328 5328 5328 5328 5328 5328 5328 5327 5327 5327 5327 5327 5328
5421 5418 5416 5413 5411 5409 5406 5404 5401 5399 5396 5394 5391 5389 5387 5385 5383 5381 5378 5376 5374 5372 5369 5367 5366 5364 5362 5360 5358 5355 5353 5350 5348 5348 5348 5349 5348 5347 5346 5345 5344 5343 5343 5342 5342 5341 5339 5338 5336 5334 5333 5331 5329 5328 5327 5326 5325 5325 5325 5325 5324 5324 5324 5324 5324 5324 5324 5324 5324 5323 5323 5323 5323 5323 5323 5324 5324 5324 5324 5323 5323 5323 5323 5323 5324 5324
5417 5414 5412 5410 5407 5405 5403 5400 5397 5395 5393 5390 5388 5385 5383 5381 5379 5377 5374 5372 5370 5368 5366 5364 5362 5360 5359 5357 5355 5353 5350 5347 5345 5345 5345 5345 5345 5344 5343 5342 5341 5340 5339 5338 5338 5338 5337 5334 5333 5331 5329 5328 5326 5324 5323 5322 5321 5321 5320 5320 5320 5320 5320 5320 5320 5320 5320 5320 5319 5319 5319 5319 5319 5319 5319 5320 5320 5320 5320 5320 5319 5319 5320 5320 5320 5320
5413 5411 5408 5406 5403 5401 5399 5396 5394 5391 5389 5386 5384 5381 5379 5377 5375 5373 5371 5368 5367 5365 5363 5360 5359 5357 5355 5354 5353 5351 5348 5345 5343 5342 5342 5342 5341 5341 5340 5339 5338 5336 5335 5334 5334 5334 5334 5332 5330 5328 5326 5325 5323 5321 5319 5318 5317 5316 5316 5316 5316 5316 5315 5315 5315 5316 5315 5315 5315 5315 5315 5315 5315 5315 5316 5316 5316 5316 5316 5316 5316 5316 5316 5316 5317 5317
5410 5408 5405 5403 5400 5398 5395 5393 5390 5388 5385 5383 5380 5378 5375 5373 5371 5369 5367 5365 5363 5361 5359 5358 5356 5354 5353 5351 5350 5348 5345 5343 5340 5339 5339 5339 5338 5338 5337 5335 5334 5333 5332 5331 5330 5330 5331 5330 5328 5326 5323 5322 5320 5318 5316 5314 5313 5312 5312 5312 5311 5311 5311 5311 5311 5311 5311 5311 5311 5311 5311 5311 5311 5311 5312 5312 5312 5312 5312 5312 5312 5312 5312 5312 5313 5313
5408 5406 5403 5400 5397 5395 5392 5389 5387 5384 5382 5379 5377 5374 5372 5370 5368 5365 5363 5362 5360 5358 5357 5355 5353 5351 5349 5348 5347 5345 5343 5340 5338 5337 5336 5336 5335 5335 5334 5333 5331 5330 5329 5328 5327 5326 5326 5326 5325 5324 5322 5320 5318 5316 5313 5311 5309 5308 5308 5308 5307 5307 5307 5307 5307 5307 5307 5307 5307 5307 5307 5307 5307 5308 5308 5308 5308 5308 5308 5308 5308 5308 5308 5308 5309 5309
5406 5403 5400 5398 5395 5392 5389 5387 5384 5382 5379 5376 5374 5371 5369 5367 5364 5362 5360 5358 5357 5355 5353 5352 5350 5348 5347 5345 5343 5342 5340 5338 5336 5334 5333 5333 5332 5332 5331 5330 5328 5327 5326 5325 5324 5323 5322 5321 5321 5320 5319 5317 5315 5313 5311 5308 5307 5305 5304 5303 5303 5303 5303 5303 5303 5303 5303 5303 5303 5303 5303 5303 5303 5304 5304 5304 5304 5304 5304 5304 5304 5304 5304 5304 5305 5306
5403 5401 5398 5395 5392 5389 5387 5384 5381 5379 5376 5374 5371 5369 5366 5364 5362 5360 5358 5356 5354 5352 5350 5349 5347 5346 5344 5342 5341 5339 5337 5335 5333 5331 5330 5330 5329 5328 5328 5327 5325 5324 5323 5322 5321 5320 5318 5318 5317 5316 5315 5314 5313 5310 5308 5306 5304 5302 5301 5300 5300 5299 5299 5299 5299 5299 5299 5299 5299 5299 5299 5299 5300 5300 5300 5301 5301 5301 5301 5301 5301 5300 5300 5301 5301 5302
5401 5398 5396 5393 5390 5387 5384 5382 5379 5377 5374 5371 5369 5367 5364 5362 5359 5357 5355 5353 5351 5349 5347 5346 5344 5343 5341 5339 5338 5336 5334 5332 5330 5328 5327 5326 5326 5325 5324 5323 5322 5321 5319 5318 5318 5316 5315 5314 5313 5312 5311 5310 5309 5308 5305 5303 5301 5299 5298 5297 5296 5296 5296 5295 5295 5295 5296 5296 5296 5296 5296 5296 5296 5297 5297 5297 5298 5298 5298 5297 5297 5297 5297 5297 5298 5298
5398 5396 5393 5391 5388 5385 5383 5380 5377 5374 5372 5369 5367 5364 5362 5359 5357 5355 5353 5350 5348 5347 5344 5343 5341 5339 5337 5336 5334 5333 5331 5329 5328 5326 5324 5323 5322 5322 5321 5320 5318 5318 5316 5315 5314 5313 5312 5311 5310 5309 5308 5307 5306 5304 5303 5300 5298 5296 5295 5294 5293 5293 5292 5292 5292 5292 5292 5292 5292 5292 5293 5293 5293 5293 5294 5294 5294 5294 5294 5294 5293 5293 5293 5293 5294 5294
5396 5394 5391 5389 5386 5383 5381 5378 5375 5373 5370 5367 5365 5362 5360 5358 5355 5353 5350 5348 5346 5344 5342 5340 5338 5336 5333 5332 5330 5329 5328 5326 5324 5323 5321 5320 5319 5318 5317 5316 5315 5314 5313 5311 5310 5309 5308 5308 5306 5305 5304 5303 5302 5301 5299 5298 5296 5294 5293 5291 5290 5289 5288 5288 5288 5288 5289 5289 5289 5289 5289 5290 5290 5290 5291 5291 5291 5291 5290 5290 5290 5290 5290 5290 5291 5291
5394 5392 5389 5387 5384 5382 5379 5377 5374 5371 5368 5366 5363 5360 5358 5355 5353 5351 5348 5346 5343 5342 5339 5337 5335 5333 5330 5328 5326 5325 5324 5322 5321 5319 5318 5316 5315 5315 5314 5313 5312 5311 5310 5308 5307 5306 5305 5304 5303 5302 5301 5300 5299 5297 5296 5294 5293 5292 5290 5289 5288 5286 5286 5285 5285 5285 5286 5286 5286 5287 5287 5287 5287 5288 5288 5288 5288 5287 5287 5287 5287 5287 5287 5287 5288 5288
5392 5390 5387 5385 5383 5380 5378 5375 5372 5369 5366 5364 5361 5358 5356 5353 5351 5348 5346 5343 5341 5339 5337 5334 5332 5330 5327 5325 5323 5321 5320 5318 5317 5316 5314 5313 5312 5311 5310 5309 5308 5307 5306 5305 5304 5303 5301 5300 5299 5298 5297 5296 5295 5294 5293 5291 5289 5288 5288 5287 5285 5284 5283 5282 5282 5282 5283 5283 5284 5284 5284 5284 5285 5285 5285 5285 5285 5284 5284 5284 5284 5284 5284 5284 5284 5284
5391 5388 5386 5383 5381 5378 5375 5373 5370 5367 5364 5362 5359 5357 5354 5351 5349 5346 5343 5341 5338 5336 5334 5332 5329 5327 5324 5322 5320 5318 5317 5315 5314 5312 5311 5310 5308 5308 5307 5306 5305 5304 5303 5302 5301 5299 5298 5297 5295 5294 5293 5292 5292 5291 5289 5288 5286 5285 5285 5284 5283 5282 5280 5279 5279 5280 5280 5281 5281 5282 5282 5282 5282 5282 5282 5282 5282 5282 5282 5282 5282 5282 5281 5281 5281 5281
5389 5386 5384 5381 5378 5376 5373 5370 5368 5365 5362 5359 5357 5354 5352 5349 5347 5344 5341 5338 5335 5333 5331 5329 5327 5324 5322 5319 5317 5315 5313 5312 5310 5309 5308 5307 5305 5304 5303 5302 5301 5300 5300 5299 5298 5297 5295 5293 5292 5291 5290 5289 5288 5287 5286 5285 5283 5283 5282 5281 5280 5279 5278 5278 5277 5278 5278 5278 5279 5279 5279 5280 5280 5280 5280 5280 5280 5280 5280 5280 5279 5279 5278 5278 5278 5278
5387 5385 5382 5379 5376 5373 5371 5368 5365 5362 5359 5357 5354 5352 5349 5347 5344 5342 5339 5336 5333 5331 5328 5327 5324 5322 5320 5317 5314 5312 5310 5308 5307 5305 5304 5303 5302 5301 5300 5299 5298 5297 5296 5296 5295 5293 5292 5291 5289 5288 5286 5285 5285 5284 5283 5282 5281 5280 5279 5278 5278 5278 5277 5276 5276 5276 5276 5276 5277 5277 5278 5278 5278 5278 5278 5278 5278 5278 5277 5277 5277 5276 5276 5275 5274 5274
5386 5383 5380 5377 5374 5371 5368 5365 5362 5359 5357 5354 5351 5348 5346 5344 5341 5339 5337 5334 5331 5329 5326 5324 5322 5320 5318 5316 5313 5310 5308 5305 5303 5302 5301 5300 5299 5298 5297 5296 5295 5294 5293 5293 5291 5290 5289 5288 5286 5284 5283 5282 5282 5281 5280 5279 5278 5277 5276 5276 5275 5275 5275 5274 5274 5274 5274 5275 5275 5275 5276 5276 5277 5277 5277 5276 5276 5275 5275 5274 5274 5273 5273 5272 5271 5271
5384 5381 5378 5375 5372 5369 5366 5363 5360 5357 5354 5351 5348 5345 5343 5340 5338 5336 5333 5331 5328 5326 5323 5321 5319 5318 5316 5313 5311 5309 5307 5304 5301 5299 5298 5297 5296 5295 5294 5293 5292 5291 5290 5289 5288 5287 5286 5285 5283 5282 5281 5279 5278 5278 5277 5276 5276 5275 5274 5274 5273 5273 5273 5273 5273 5273 5273 5273 5274 5274 5274 5274 5275 5275 5275 5274 5274 5273 5273 5272 5271 5270 5270 5269 5268 5268
5382 5379 5376 5373 5370 5367 5363 5361 5358 5354 5351 5348 5345 5343 5340 5337 5334 5332 5330 5327 5325 5323 5320 5318 5316 5314 5312 5310 5309 5307 5305 5303 5300 5298 5296 5294 5293 5292 5291 5290 5289 5288 5287 5286 5285 5284 5283 5281 5280 5279 5278 5277 5276 5275 5274 5274 5273 5273 5273 5272 5272 5272 5272 5272 5272 5272 5272 5272 5272 5272 5273 5273 5273 5273 5273 5273 5272 5271 5270 5270 5269 5268 5267 5266 5266 5265
5380 5377 5374 5371 5368 5364 5362 5358 5355 5352 5349 5346 5343 5339 5336 5333 5331 5328 5326 5323 5321 5318 5316 5314 5312 5310 5308 5307 5305 5304 5303 5301 5299 5297 5294 5293 5291 5289 5288 5288 5287 5286 5285 5283 5283 5281 5280 5278 5277 5276 5275 5275 5274 5273 5273 5272 5271 5271 5271 5271 5270 5270 5270 5270 5271 5271 5271 5271 5271 5271 5271 5271 5271 5271 5271 5271 5270 5269 5268 5267 5266 5266 5265 5264 5263 5263
5378 5375 5372 5369 5365 5362 5359 5356 5353 5350 5346 5343 5340 5336 5333 5330 5328 5325 5322 5319 5317 5314 5312 5310 5308 5306 5304 5303 5301 5300 5299 5298 5296 5295 5293 5291 5290 5288 5287 5286 5284 5283 5282 5281 5280 5279 5277 5276 5274 5273 5273 5273 5272 5272 5271 5270 5270 5269 5269 5269 5269 5269 5269 5269 5269 5269 5270 5270 5270 5270 5269 5269 5269 5269 5269 5269 5268 5268 5266 5265 5264 5263 5262 5262 5261 5260
5376 5373 5370 5367 5363 5360 5357 5354 5351 5348 5344 5341 5337 5334 5330 5327 5324 5321 5318 5315 5313 5310 5308 5306 5304 5302 5300 5299 5297 5296 5295 5294 5293 5292 5291 5290 5288 5287 5286 5284 5283 5282 5281 5280 5278 5277 5275 5274 5272 5271 5271 5271 5271 5270 5270 5269 5269 5268 5268 5268 5268 5268 5268 5268 5268 5268 5268 5269 5268 5268 5268 5268 5268 5268 5267 5267 5266 5265 5264 5263 5262 5261 5260 5259 5258 5257
5374 5371 5368 5365 5361 5358 5355 5352 5348 5345 5342 5338 5335 5331 5328 5324 5320 5317 5314 5311 5309 5306 5304 5302 5300 5298 5297 5295 5294 5293 5292 5291 5290 5289 5288 5288 5287 5286 5284 5283 5282 5281 5280 5279 5278 5276 5274 5273 5271 5270 5269 5270 5269 5269 5269 5268 5268 5267 5267 5267 5267 5267 5267 5268 5268 5268 5268 5268 5267 5267 5267 5267 5267 5266 5266 5265 5264 5264 5263 5261 5260 5258 5257 5256 5255 5255
5372 5369 5366 5363 5359 5356 5353 5349 5346 5343 5339 5336 5333 5329 5325 5321 5317 5314 5311 5308 5305 5303 5300 5298 5296 5295 5293 5292 5291 5290 5289 5288 5288 5287 5286 5285 5285 5284 5283 5282 5282 5281 5280 5278 5277 5276 5274 5273 5271 5269 5268 5268 5268 5268 5268 5268 5267 5267 5267 5267 5267 5267 5267 5267 5267 5267 5267 5266 5266 5266 5265 5265 5265 5265 5264 5264 5263 5262 5261 5260 5258 5256 5255 5254 5253 5252
5370 5367 5364 5361 5357 5354 5351 5347 5344 5340 5337 5333 5329 5326 5322 5318 5314 5311 5308 5305 5302 5299 5297 5295 5293 5292 5290 5289 5288 5288 5287 5286 5285 5285 5284 5284 5283 5283 5282 5281 5280 5279 5278 5277 5276 5275 5274 5273 5271 5269 5268 5268 5268 5268 5268 5267 5267 5266 5266 5266 5266 5266 5266 5266 5266 5266 5266 5265 5265 5264 5264 5264 5263 5263 5263 5262 5262 5261 5260 5258 5256 5255 5253 5252 5251 5250